Moline, IL
on Saturday, January 11, 2014

Saturday
Previous Day Next Day
Daily Summary
 ActualAverageRecord
Temperature
Mean Temperature °F 22°F  
Max Temperature 37°F 31°F 56°F (1880)
Min Temperature 30°F 14°F -17°F (1979)
Degree Days
Heating Degree Days 31 42  
Month to date heating degree days 592 462  
Since 1 July heating degree days 3308 2883  
Cooling Degree Days 0 0  
Month to date cooling degree days 0 0  
Year to date cooling degree days 0 0  
Moisture
Dew Point 28°F   
Average Humidity 82    
Maximum Humidity 100    
Minimum Humidity 64    
Precipitation
Precipitation 0.00 in 0.05 in 0.92 in (1960)
Month to date precipitation 0.80 0.57  
Year to date precipitation 0.80 0.57  
Snow
Snow 0.00 in 0.30 in in ()
Month to date snowfall 11.2 3.4  
Since 1 July snowfall 26.0 13.9  
Snow Depth 2.00 in   
Wind
Wind Speed 15 mph   
Max Wind Speed 24 mph   
Max Gust Speed 32 mph   
Visibility 8 miles   
Events     

Key: T is trace of precipitation, MM is missing value
Source: NWS Daily Summary
Time(CST)TemperatureDew PointHumidity Pressure Visibility Wind DirectionWind SpeedGust SpeedPrecipitationEvents Conditions
12:52 AM 36.0°F 34.0°F 93% 29.49 in 6.0 miles West 12.7 mph - N/A   Overcast
1:52 AM 35.1°F 33.1°F 92% 29.50 in 6.0 miles West 9.2 mph - N/A   Overcast
2:30 AM 33.8°F 32.0°F 93% 29.50 in 6.0 miles West 8.1 mph - N/A   Overcast
2:52 AM 34.0°F 32.0°F 92% 29.49 in 6.0 miles WNW 5.8 mph - N/A   Overcast
3:52 AM 34.0°F 30.9°F 89% 29.50 in 7.0 miles WNW 9.2 mph - N/A   Overcast
4:09 AM 33.8°F 30.2°F 87% 29.49 in 8.0 miles West 12.7 mph - N/A   Overcast
4:52 AM 34.0°F 30.9°F 89% 29.52 in 6.0 miles West 10.4 mph - N/A   Overcast
5:52 AM 33.1°F 28.9°F 85% 29.54 in 7.0 miles West 16.1 mph 21.9 mph N/A   Overcast
6:52 AM 32.0°F 28.9°F 88% 29.57 in 8.0 miles West 12.7 mph - N/A   Overcast
7:52 AM 33.1°F 28.9°F 85% 29.57 in 6.0 miles West 13.8 mph - N/A   Overcast
8:52 AM 33.1°F 28.9°F 85% 29.59 in 6.0 miles West 12.7 mph - N/A   Overcast
9:52 AM 33.1°F 28.9°F 85% 29.61 in 5.0 miles West 17.3 mph 21.9 mph N/A   Overcast
10:52 AM 34.0°F 28.0°F 79% 29.62 in 6.0 miles West 18.4 mph - N/A   Haze
11:07 AM 35.6°F 28.4°F 75% 29.60 in 7.0 miles West 15.0 mph - N/A   Scattered Clouds
11:52 AM 36.0°F 28.9°F 76% 29.61 in 7.0 miles West 15.0 mph - N/A   Clear
12:52 PM 37.0°F 26.1°F 65% 29.60 in 10.0 miles West 18.4 mph - N/A   Clear
1:52 PM 37.0°F 26.1°F 65% 29.62 in 10.0 miles West 16.1 mph - N/A   Clear
2:52 PM 35.1°F 25.0°F 67% 29.65 in 10.0 miles WNW 24.2 mph 31.1 mph N/A   Scattered Clouds
3:11 PM 32.0°F 24.8°F 75% 29.66 in 10.0 miles West 21.9 mph 28.8 mph N/A   Mostly Cloudy
3:52 PM 32.0°F 26.1°F 79% 29.70 in 10.0 miles WNW 20.7 mph 25.3 mph N/A   Overcast
4:52 PM 30.0°F 24.1°F 79% 29.74 in 10.0 miles West 18.4 mph 26.5 mph N/A   Overcast
5:52 PM 30.0°F 24.1°F 79% 29.77 in 10.0 miles WNW 15.0 mph 25.3 mph N/A   Overcast
6:52 PM 30.0°F 25.0°F 82% 29.79 in 10.0 miles West 15.0 mph - N/A   Overcast
7:52 PM 30.9°F 26.1°F 82% 29.82 in 10.0 miles West 12.7 mph - N/A   Overcast
8:52 PM 30.9°F 26.1°F 82% 29.83 in 10.0 miles West 11.5 mph - N/A   Overcast
9:52 PM 32.0°F 26.1°F 79% 29.84 in 10.0 miles WNW 11.5 mph 20.7 mph N/A   Overcast
10:52 PM 30.9°F 26.1°F 82% 29.85 in 10.0 miles West 11.5 mph - N/A   Overcast
11:52 PM 30.9°F 26.1°F 82% 29.86 in 10.0 miles West 12.7 mph - N/A   Overcast
Astronomy
Sunrise:07:27 AM (CST) Moon Rise:01:37 PM (CST)1/11
Sunset:04:52 PM (CST) Moon Set:03:31 AM (CST)1/11
Moon Phase
Jan. 11 Jan. 16 Jan. 24 Jan. 30 Feb. 06

Copyright © 2017 The Weather Underground, Inc.















  Today is Tuesday, Nov. 22, the 327th day of 2016. There are 39 days left in the year.
1866 -- 150 years ago: Free luncheon is served at Phil Hein's Saloon every morning at 10 o'clock.
1891 -- 125 years ago: Bige Bickford was injured as he was coupling cars in the Rock Island Lines yard.
1916 -- 100 years ago: Clarence Granlund was elected president of the Lyceum at Augustana College.
1941 -- 75 years ago: Alice Schall, teacher at Grant School, supervised packing of Thanksgiving boxes for needy families.
1966 -- 50 years ago: The Rev. Lowell Campbell, pastor of the Milan Presbyterian Church, led the members of the congregation in a ground-breaking ceremony yesterday at the site of the new church one mile south of Andalusia Road on U.S. 67. The building will cost $285,000 and will be completed next fall.
1991 -- 25 years ago: Construction of a 200-room, $13.5 million hotel on the east end of the Moline civic center site will begin next spring, according to an agreement that was to be considered this morning by the Quad City Civic Center Authority.